Temperature
16 16 15 15 15 15 15 15 15 15 15 15 15 15 15 15 15 15 15 15 15 15 16 16 16 15 15 15 15 15 15 15 15 15 15 15 14 14 13 12 13 13 12
16 16 15 15 15 15 15 15 15 15 15 15 15 15 15 14 14 14 14 15 15 15 15 15 15 15 15 15 15 15 15 15 15 14 15 15 15 14 13 12 12 12 12
16 16 15 15 15 15 15 15 15 15 14 14 14 14 14 14 14 14 14 14 15 15 15 15 15 15 15 15 15 15 15 15 15 14 14 15 15 14 13 13 12 12 12
16 16 16 16 15 15 15 15 15 14 14 14 14 14 14 14 14 14 14 14 14 15 15 15 15 15 15 15 15 15 15 14 14 14 13 14 15 14 14 13 13 13 12
17 16 16 16 15 15 15 15 15 14 14 14 14 14 14 14 14 14 14 14 14 14 15 15 15 15 15 15 15 15 14 14 14 13 13 13 14 15 15 14 14 13 12
17 17 16 16 15 15 15 15 15 15 15 14 14 14 15 15 14 14 14 14 14 14 14 15 15 15 15 15 15 15 14 14 14 13 13 14 15 15 15 15 14 13 13
17 17 16 16 15 15 15 15 15 15 15 15 15 15 15 15 14 14 14 14 14 14 14 14 15 15 15 15 15 15 14 14 14 14 14 15 15 15 15 15 14 14 13
17 17 16 16 16 15 15 15 15 15 15 15 15 14 14 14 14 15 14 14 14 14 14 14 15 15 15 15 15 14 14 14 14 14 14 15 15 15 15 15 14 13 12
17 17 16 16 16 15 15 15 15 15 14 14 14 14 14 14 14 14 14 14 14 14 14 14 15 15 15 15 14 15 15 15 14 14 14 14 14 14 14 14 14 13 13
16 15 16 16 16 15 15 15 15 14 14 14 14 14 14 14 14 13 13 13 14 14 14 14 15 15 14 14 14 14 14 15 14 14 14 15 14 14 14 14 14 13 13
14 14 14 15 15 15 15 15 15 14 14 13 13 13 13 13 13 13 13 13 13 13 14 14 14 14 14 14 14 14 14 13 14 13 13 14 14 14 14 14 14 14 13
13 13 13 13 14 14 14 14 14 14 13 13 13 13 13 12 12 12 12 12 13 13 13 13 13 13 13 13 13 13 13 13 13 13 13 13 13 14 14 14 14 13 13
12 12 12 12 12 13 13 13 13 13 13 13 12 12 12 12 12 12 12 12 12 12 12 13 12 12 12 12 12 12 12 12 12 12 12 13 13 13 13 13 13 13 12
11 11 11 11 12 12 12 12 12 12 12 12 12 12 12 12 12 12 12 12 12 12 12 12 12 12 12 12 12 12 11 11 11 12 12 12 12 12 12 12 12 12 12
11 11 11 11 11 11 11 11 12 12 12 12 11 11 11 11 11 12 12 12 12 12 12 12 12 12 12 12 12 11 11 11 11 11 11 11 11 11 11 12 12 12 12
11 11 11 11 11 11 11 11 11 11 11 11 11 11 11 11 11 11 12 12 11 11 11 11 11 11 11 11 11 11 11 11 11 11 11 11 11 11 11 11 11 11 12
11 11 11 11 11 11 11 11 11 11 11 11 11 11 11 11 11 11 12 12 11 11 11 11 10 10 10 10 11 11 11 11 10 10 10 10 10 10 10 10 10 11 11
11 11 11 11 11 11 10 10 10 10 10 10 10 10 10 10 11 11 11 11 11 10 10 10 10 10 10 10 10 10 10 10 10 10 10 10 10 10 10 10 10 10 10
11 11 11 11 10 10 10 10 10 10 10 10 9 9 9 10 10 10 10 10 10 10 9 9 9 9 9 9 9 9 10 10 10 10 10 10 10 9 9 9 9 9 10
11 11 11 11 10 10 10 10 10 10 10 9 9 9 9 9 9 9 9 9 9 9 9 9 9 9 9 9 9 9 9 9 9 9 9 9 9 9 9 9 9 9 10
11 11 11 10 10 10 10 10 10 10 10 9 9 9 9 9 9 9 9 9 9 9 9 9 9 9 9 9 9 9 9 9 9 9 9 9 9 9 9 9 9 9 9
11 11 10 10 10 10 10 10 10 10 10 9 9 9 9 9 9 9 9 9 9 9 9 9 9 9 9 9 9 9 9 9 9 9 9 9 9 9 9 9 9 9 9
10 10 10 10 10 10 10 10 10 10 10 10 10 9 9 9 9 9 9 9 9 9 9 9 9 9 9 9 9 9 9 9 9 9 9 9 9 9 9 9 9 9 9
10 10 10 10 10 10 10 10 10 10 10 10 10 10 10 10 9 9 9 9 9 9 9 9 9 9 9 9 9 9 9 9 8 8 9 9 9 9 9 9 9 8 8
10 10 10 10 10 10 10 10 10 10 10 10 10 10 10 10 9 9 9 9 9 9 9 9 9 9 9 9 9 9 9 9 9 9 9 8 8 9 9 8 8 8 8
10 10 10 10 10 10 10 10 10 10 10 10 10 10 9 9 9 9 9 9 9 9 9 9 9 9 9 9 9 9 9 9 9 9 8 8 8 8 8 8 8 7 7
Wind_Speed
6 6 6 6 7 7 7 7 7 7 7 8 8 8 7 7 6 5 5 4 5 5 5 7 9 8 7 7 7 6 6 5 5 3 2 2 4 5 5 5 5 6 6
7 6 6 6 7 7 8 7 7 7 6 6 6 6 6 5 5 6 6 6 6 7 8 8 9 7 8 7 8 9 8 6 5 5 3 3 3 5 4 3 3 4 5
7 7 7 7 8 8 8 7 7 7 6 6 6 6 6 6 7 7 8 8 8 9 9 10 10 9 10 9 9 9 8 7 4 5 5 2 2 3 3 2 3 2 3
6 7 8 8 9 9 8 7 7 7 6 6 6 6 6 6 7 8 8 8 8 9 9 10 10 12 12 12 10 10 9 8 6 7 6 4 3 3 4 3 2 1 1
7 7 8 8 7 7 7 7 7 7 7 6 6 5 5 5 5 7 7 9 9 10 9 9 11 14 15 13 10 11 11 10 8 7 6 5 5 5 6 5 4 2 0
7 8 6 6 7 7 7 7 7 7 7 6 6 6 5 4 6 8 8 8 8 9 9 8 9 12 15 18 17 16 17 14 13 9 7 7 9 7 6 6 5 4 3
8 7 7 7 7 7 7 7 8 8 7 7 6 6 5 5 7 8 8 7 8 8 8 7 6 8 11 9 14 17 18 21 20 14 11 10 11 12 12 10 8 5 4
8 8 7 7 8 7 7 7 7 6 6 6 6 6 5 5 6 7 7 5 6 7 7 7 7 6 7 9 9 10 11 13 16 14 13 11 9 11 12 10 8 6 4
7 7 7 7 7 7 8 8 7 6 6 5 5 5 5 5 6 6 5 2 4 5 5 6 7 6 7 9 8 9 9 9 12 13 9 9 13 18 17 10 10 6 4
4 5 5 6 8 9 8 7 5 6 6 6 5 4 4 5 5 6 4 2 2 2 2 3 6 7 7 9 7 7 9 7 6 8 8 10 12 17 23 15 13 9 4
3 2 2 4 6 6 5 5 5 5 6 5 4 3 4 5 5 6 5 4 3 3 3 2 3 6 7 8 6 4 4 3 5 7 7 7 7 9 12 12 12 9 8
4 4 4 2 1 3 5 5 5 6 5 4 2 2 2 2 4 5 6 7 6 4 4 3 2 4 4 5 4 3 3 4 4 5 6 7 8 9 9 9 11 10 7
5 5 5 5 3 2 4 5 4 5 4 3 2 2 3 2 3 5 5 7 8 4 3 3 3 3 3 3 2 3 4 4 4 4 5 6 5 6 6 6 8 8 6
4 4 4 5 5 4 3 3 4 4 4 3 2 3 3 3 3 2 2 2 5 4 3 4 5 5 4 3 2 2 3 4 4 3 3 3 4 5 6 6 6 6 5
2 3 4 4 4 5 5 4 2 1 2 3 3 3 3 4 4 5 4 4 5 5 6 3 3 2 2 1 1 2 2 2 3 2 3 3 4 5 5 6 5 6 6
1 1 2 3 3 3 4 5 9 6 4 3 2 2 2 3 4 3 5 7 10 12 6 3 3 3 3 3 3 2 2 3 3 3 4 4 5 7 7 6 6 7 8
2 2 1 1 2 2 2 3 3 5 9 10 8 5 4 5 4 3 5 9 11 10 3 3 3 4 4 3 3 3 3 3 3 3 4 4 5 6 7 8 9 8 7
3 3 3 1 1 2 2 2 2 2 1 2 6 8 7 7 7 7 10 8 5 3 2 2 3 3 3 3 3 3 3 3 3 3 3 4 4 5 6 8 9 9 7
4 3 3 2 2 2 2 2 2 3 2 2 2 4 7 7 7 7 4 3 2 1 1 1 2 2 3 3 4 4 4 4 4 3 4 4 4 4 5 6 7 9 7
3 6 5 3 3 3 3 3 3 3 3 3 2 2 2 2 2 2 2 2 1 0 1 2 3 3 3 4 4 4 4 4 4 4 4 4 4 4 5 6 6 7 6
3 4 5 4 3 3 3 3 4 4 4 3 2 1 2 1 1 0 1 1 1 2 2 2 3 3 3 3 4 4 5 4 4 5 4 4 5 4 4 4 5 5 4
4 3 3 3 3 3 3 4 4 4 4 3 2 2 3 1 1 1 1 2 2 2 2 2 3 3 3 4 4 4 5 5 5 5 5 5 5 5 4 4 4 4 4
4 4 3 2 3 4 4 4 4 3 3 3 3 2 1 1 1 1 2 2 2 2 2 2 3 3 3 3 4 4 5 5 5 6 6 6 6 5 5 5 6 6 6
5 4 4 3 3 4 4 4 3 3 3 3 3 2 1 1 2 2 2 2 2 2 2 2 3 4 5 4 4 6 7 7 6 5 7 7 7 6 6 6 6 7 7
5 4 4 4 4 4 4 3 3 3 3 3 2 2 2 2 3 3 3 3 3 3 4 3 2 3 5 5 5 6 8 9 9 7 5 6 6 7 6 6 6 6 6
5 5 4 4 4 3 3 3 3 3 3 3 3 3 3 3 3 3 3 4 4 4 4 4 5 5 6 6 7 8 8 8 8 8 6 4 6 6 7 6 7 7 7
Wind_Direction
205 202 195 191 187 182 188 195 192 188 184 181 181 181 184 189 194 210 227 204 209 224 213 208 215 196 194 198 196 194 189 168 163 146 124 137 151 152 127 105 85 63 49
201 200 204 191 181 185 196 198 196 197 197 192 190 193 195 196 196 209 226 223 217 232 232 220 222 205 202 197 197 200 195 176 154 161 153 147 159 157 138 125 103 78 51
192 197 202 195 191 197 200 194 191 193 194 191 190 200 204 203 203 211 220 225 223 230 230 224 220 201 207 203 199 199 193 183 149 148 154 140 133 145 130 115 98 62 61
194 197 203 204 202 203 196 191 191 189 190 196 204 211 213 212 211 212 216 223 230 235 229 222 216 207 208 203 201 196 182 173 154 147 150 151 142 138 143 152 150 119 63
198 206 212 208 201 194 189 188 186 187 195 196 200 207 206 207 216 216 217 223 227 234 229 218 215 213 211 202 198 192 181 179 169 161 159 158 166 168 190 168 155 140 196
208 218 211 196 194 192 189 179 177 183 187 185 192 195 201 212 228 232 225 226 229 232 231 220 215 217 218 211 209 199 189 185 185 180 175 183 193 187 162 161 144 149 209
216 221 206 197 199 199 187 179 185 186 182 183 189 190 207 232 249 259 249 229 227 229 228 218 215 212 209 205 212 209 205 203 196 187 190 194 187 187 174 171 172 163 185
218 223 215 204 207 202 195 198 194 183 185 187 188 191 207 242 263 277 281 250 234 233 225 216 213 204 194 198 198 201 204 208 205 200 204 202 189 177 178 176 158 124 94
234 234 229 218 215 207 208 209 195 183 184 184 184 188 210 254 279 286 273 246 248 247 231 215 203 194 194 191 192 204 208 215 213 205 196 179 171 169 162 143 149 154 174
266 256 239 224 223 222 218 203 187 183 183 176 180 190 213 247 272 280 232 195 244 253 227 204 190 174 167 172 182 198 216 215 191 192 176 169 168 174 175 175 171 172 161
321 303 265 233 226 222 206 181 172 170 165 165 177 200 223 243 270 282 223 189 207 216 214 204 195 173 160 164 166 183 216 188 179 180 171 166 168 178 186 187 182 176 173
36 34 20 360 235 193 178 171 163 161 162 165 171 254 261 263 269 281 250 211 196 196 213 206 199 184 164 158 162 182 194 156 158 173 183 189 192 193 192 188 187 183 174
35 32 26 32 37 102 161 158 148 154 155 155 157 270 288 287 287 292 274 224 202 192 205 189 174 168 149 136 143 149 152 151 165 184 201 205 195 181 165 161 167 165 143
24 23 29 41 46 53 79 130 147 159 153 152 177 239 268 278 270 270 271 204 179 154 117 109 100 104 104 112 106 116 137 162 176 194 197 185 158 163 168 162 163 162 157
22 32 45 53 63 66 64 60 88 118 152 165 196 212 226 255 256 227 197 179 162 146 124 94 86 101 132 158 159 167 176 177 189 184 182 176 176 178 175 166 159 162 180
101 43 49 64 74 85 91 79 58 60 72 108 158 184 235 268 296 264 202 175 154 147 127 140 160 175 197 207 213 218 220 219 213 205 206 203 200 198 190 179 174 182 193
170 167 111 92 101 104 101 106 95 56 54 54 49 47 38 22 30 85 137 146 152 150 127 153 176 192 205 214 220 226 235 237 220 218 222 221 215 209 198 194 190 189 192
153 146 135 128 133 141 144 144 142 138 93 45 41 51 57 57 64 92 116 116 135 146 134 165 192 203 208 214 221 230 244 249 235 230 224 217 210 208 205 199 195 190 183
145 132 122 119 124 133 138 141 147 149 136 113 94 68 67 68 75 86 81 70 119 179 199 210 220 220 219 219 221 226 232 234 232 226 223 216 206 196 199 197 190 179 169
150 147 136 125 112 107 111 118 125 132 132 126 119 100 79 62 67 55 35 34 35 332 245 242 242 235 225 220 216 214 220 227 226 223 221 213 206 200 196 190 183 179 178
141 132 126 112 104 106 108 113 120 124 129 128 129 163 146 101 101 64 333 319 309 297 277 257 254 251 240 229 221 221 223 228 223 218 215 210 203 203 200 189 183 169 152
141 130 125 125 116 104 105 107 113 118 127 126 116 118 152 93 64 8 335 318 302 286 270 251 249 245 237 232 229 228 229 233 228 219 216 211 207 204 198 193 181 168 164
143 138 129 121 119 116 104 98 101 105 109 115 120 112 118 54 10 349 329 315 305 296 286 263 263 264 253 239 233 234 239 239 230 217 213 212 208 204 197 196 190 179 182
148 147 142 132 121 119 113 106 101 101 104 107 107 101 87 34 7 355 347 336 332 323 313 298 285 287 285 269 254 247 248 250 242 223 212 210 208 206 201 200 196 191 185
144 144 142 140 133 127 120 113 108 107 105 103 96 84 67 48 28 15 9 3 356 348 342 333 311 302 299 292 283 272 266 261 252 237 215 208 205 202 199 197 194 189 188
142 141 134 127 126 127 126 122 117 115 108 97 85 77 70 57 39 22 12 5 358 354 354 349 348 349 346 336 327 320 307 287 265 241 218 201 198 198 194 197 197 197 198
Height
1478 1478 1479 1480 1481 1483 1484 1487 1489 1491 1493 1496 1498 1501 1504 1507 1510 1513 1515 1518 1520 1522 1524 1526 1528 1530 1532 1534 1535 1537 1539 1541 1543 1545 1547 1548 1549 1550 1551 1551 1552 1552 1552
1476 1477 1478 1479 1480 1481 1483 1485 1488 1491 1493 1495 1497 1500 1502 1505 1507 1510 1512 1515 1517 1518 1520 1521 1523 1524 1526 1528 1530 1532 1534 1536 1539 1541 1543 1545 1546 1548 1548 1549 1550 1550 1550
1473 1474 1475 1476 1477 1479 1481 1483 1486 1489 1491 1493 1496 1498 1500 1502 1504 1506 1508 1510 1512 1514 1515 1516 1517 1518 1520 1522 1524 1526 1529 1531 1534 1536 1539 1541 1543 1545 1545 1546 1547 1547 1548
1471 1471 1472 1473 1475 1476 1478 1480 1483 1485 1488 1490 1493 1494 1496 1498 1500 1502 1503 1505 1507 1508 1510 1511 1512 1512 1514 1516 1518 1520 1523 1525 1528 1531 1534 1537 1539 1541 1542 1543 1544 1545 1546
1468 1468 1469 1471 1472 1474 1475 1477 1479 1482 1484 1487 1489 1491 1493 1494 1496 1498 1499 1501 1502 1503 1504 1505 1506 1507 1509 1510 1512 1514 1517 1519 1522 1525 1528 1531 1534 1536 1538 1539 1541 1542 1543
1465 1466 1467 1468 1470 1471 1473 1475 1477 1479 1481 1484 1486 1488 1489 1491 1492 1493 1494 1495 1496 1497 1498 1500 1501 1502 1504 1505 1507 1509 1511 1513 1515 1519 1522 1525 1528 1532 1534 1536 1537 1538 1539
1462 1463 1464 1465 1467 1469 1470 1472 1474 1476 1478 1481 1483 1485 1486 1487 1488 1489 1490 1490 1491 1492 1493 1494 1496 1497 1499 1501 1503 1504 1506 1508 1510 1513 1516 1519 1523 1528 1531 1533 1534 1535 1537
1458 1460 1461 1462 1463 1465 1467 1468 1471 1473 1475 1477 1479 1481 1482 1483 1484 1485 1485 1485 1486 1487 1488 1489 1491 1492 1494 1497 1499 1500 1502 1504 1505 1507 1511 1515 1520 1525 1527 1530 1532 1533 1534
1453 1455 1456 1457 1459 1460 1461 1463 1466 1468 1470 1473 1475 1477 1478 1479 1480 1480 1481 1481 1482 1482 1483 1484 1486 1488 1490 1492 1494 1496 1498 1500 1502 1504 1507 1511 1515 1519 1522 1525 1526 1528 1529
1449 1449 1451 1452 1453 1454 1456 1458 1460 1463 1465 1468 1471 1473 1475 1476 1476 1477 1477 1478 1478 1479 1479 1481 1482 1484 1486 1488 1490 1492 1494 1496 1498 1500 1502 1506 1509 1513 1516 1519 1522 1524 1525
1446 1446 1446 1447 1448 1449 1451 1453 1456 1459 1461 1464 1467 1470 1471 1472 1473 1474 1475 1475 1475 1476 1476 1478 1479 1481 1482 1484 1486 1488 1490 1492 1494 1496 1498 1501 1504 1507 1510 1513 1516 1519 1522
1446 1445 1445 1444 1444 1445 1447 1449 1452 1455 1458 1461 1464 1466 1468 1469 1470 1471 1472 1472 1473 1473 1474 1475 1477 1478 1479 1481 1483 1485 1487 1489 1491 1493 1494 1497 1499 1502 1505 1508 1512 1515 1518
1446 1445 1444 1443 1443 1443 1444 1446 1448 1451 1455 1458 1461 1463 1465 1466 1467 1468 1469 1470 1470 1471 1472 1473 1474 1475 1477 1478 1480 1482 1484 1486 1488 1490 1491 1493 1496 1498 1501 1504 1507 1510 1513
1447 1446 1445 1444 1443 1443 1443 1445 1447 1450 1453 1456 1458 1460 1462 1463 1464 1465 1466 1468 1469 1469 1470 1471 1472 1474 1475 1476 1478 1480 1481 1483 1485 1486 1488 1490 1492 1494 1497 1500 1502 1505 1507
1448 1446 1446 1445 1445 1445 1445 1446 1448 1451 1453 1455 1457 1458 1459 1460 1461 1462 1463 1465 1466 1468 1469 1470 1471 1472 1473 1474 1475 1477 1478 1480 1481 1483 1484 1486 1488 1490 1492 1494 1497 1499 1502
1448 1447 1447 1446 1447 1447 1448 1449 1450 1452 1453 1455 1456 1457 1458 1459 1459 1460 1460 1462 1463 1465 1466 1468 1469 1470 1471 1472 1473 1474 1476 1477 1478 1479 1480 1481 1482 1484 1486 1488 1490 1492 1495
1448 1448 1448 1448 1448 1449 1450 1451 1452 1453 1454 1455 1455 1456 1456 1457 1458 1458 1459 1460 1461 1462 1464 1465 1466 1468 1469 1470 1471 1472 1473 1473 1474 1475 1475 1476 1477 1478 1479 1480 1482 1485 1488
1449 1448 1448 1449 1449 1450 1450 1451 1452 1452 1453 1453 1454 1454 1455 1456 1457 1457 1458 1459 1459 1460 1461 1463 1464 1465 1466 1467 1468 1468 1469 1470 1470 1470 1471 1471 1472 1472 1472 1473 1475 1477 1480
1450 1449 1449 1449 1450 1450 1450 1450 1451 1452 1452 1453 1453 1454 1454 1455 1456 1456 1457 1457 1458 1459 1459 1461 1462 1463 1464 1464 1465 1465 1466 1466 1466 1466 1467 1467 1468 1468 1468 1468 1469 1470 1473
1450 1450 1450 1451 1451 1451 1451 1451 1452 1452 1453 1453 1454 1454 1455 1455 1456 1456 1456 1456 1457 1457 1458 1459 1460 1460 1461 1461 1462 1462 1462 1463 1463 1463 1463 1463 1464 1464 1465 1465 1466 1468 1469
1450 1451 1451 1452 1452 1453 1452 1453 1453 1453 1454 1454 1455 1455 1456 1456 1456 1456 1456 1456 1456 1457 1457 1457 1458 1458 1458 1458 1459 1459 1459 1459 1459 1459 1459 1459 1460 1460 1461 1463 1464 1465 1467
1450 1451 1451 1452 1453 1453 1453 1453 1454 1454 1455 1455 1456 1456 1457 1457 1457 1457 1457 1456 1456 1456 1456 1456 1456 1455 1455 1455 1455 1455 1455 1455 1455 1456 1456 1456 1456 1457 1457 1458 1460 1462 1463
1449 1450 1451 1452 1452 1453 1454 1454 1454 1455 1455 1456 1456 1457 1457 1458 1458 1458 1457 1457 1457 1456 1456 1455 1454 1453 1452 1452 1452 1451 1451 1450 1451 1451 1451 1451 1451 1452 1453 1454 1455 1457 1458
1449 1450 1451 1451 1452 1453 1454 1455 1455 1456 1456 1457 1458 1458 1459 1459 1459 1458 1458 1458 1457 1456 1455 1454 1453 1452 1451 1450 1449 1448 1447 1446 1446 1446 1446 1446 1447 1447 1448 1449 1450 1452 1453
1448 1450 1451 1452 1453 1454 1455 1456 1456 1457 1458 1459 1459 1460 1460 1460 1460 1459 1459 1458 1457 1456 1455 1453 1452 1451 1449 1448 1447 1446 1444 1443 1442 1442 1441 1441 1442 1442 1443 1443 1444 1446 1447
1448 1449 1451 1452 1453 1454 1456 1457 1457 1458 1459 1460 1460 1460 1460 1460 1459 1459 1458 1457 1456 1455 1454 1452 1451 1449 1448 1447 1445 1444 1443 1441 1440 1439 1438 1438 1438 1438 1438 1438 1439 1440 1442